[Iaude] MPEC L52: 2022 LL1 [a=1.97,e=0.75,i=6.9,H=25.6]

mpec at marsden.cfa.harvard.edu mpec at marsden.cfa.harvard.edu
Mon Jun 6 23:19:04 EDT 2022


M.P.E.C. 2022-L52                                  Issued 2022 June 7, 03:17 UT

     The Minor Planet Electronic Circulars contain information on unusual
         minor planets and routine data on comets.  They are published
    on behalf of Division F of the International Astronomical Union by the
          Minor Planet Center, Smithsonian Astrophysical Observatory,
                          Cambridge, MA 02138, U.S.A.

             Prepared using the Tamkin Foundation Computer Network

                              MPC at CFA.HARVARD.EDU
            URL https://www.minorplanetcenter.net/    ISSN 1523-6714

                                    2022 LL1                                    


Observations:
     K22L01L* C2022 06 05.40365317 01 46.650-06 25 09.53         20.93wUEL052F52
     K22L01L  C2022 06 05.41520717 01 41.885-06 24 08.61         21.15wUEL052F52
     K22L01L  C2022 06 05.42678017 01 37.117-06 23 07.86         21.11wUEL052F52
     K22L01L  C2022 06 05.43835617 01 32.258-06 22 06.15         21.17wUEL052F52
     K22L01L  C2022 06 05.50615117 01 03.828-06 16 00.97         21.09GVEL052F52
     K22L01L  C2022 06 05.50678117 01 03.566-06 15 57.72         20.78GVEL052F52
     K22L01L mC2022 06 06.29782016 55 19.450-04 54 08.40         21.16GVEL052I52
     K22L01L mC2022 06 06.29852816 55 19.000-04 54 02.80         20.04GVEL052I52
     K22L01L |C2022 06 06.29980 16 55 13.66 -04 51 44.4          21.5 VuEL052807
     K22L01L |C2022 06 06.30641 16 55 10.09 -04 50 56.9          21.6 VuEL052807
     K22L01L |C2022 06 06.31279 16 55 06.67 -04 50 10.9          21.6 VuEL052807
     K22L01L  C2022 06 06.41979116 54 16.834-04 38 52.95         20.60GVEL052F52
     K22L01L  C2022 06 06.42042116 54 16.474-04 38 48.67         20.70GVEL052F52
     K22L01L ^C2022 06 06.45013716 53 59.124-04 35 02.69         20.59GVEL052568
     K22L01L ^C2022 06 06.45351716 53 57.162-04 34 37.11         20.49GVEL052568
     K22L01L hC2022 06 06.89228516 49 45.61 -03 34 50.5          21.0 GVEL052L01
     K22L01L hC2022 06 06.89554916 49 43.45 -03 34 21.4          21.1 GVEL052L01
     K22L01L hC2022 06 06.89808716 49 41.72 -03 33 58.3          20.8 GVEL052L01
     K22L01L 1C2022 06 06.95705 16 49 01.59 -03 25 06.6          20.7 VXEL052033
     K22L01L 1C2022 06 06.95815 16 49 00.83 -03 24 56.5          20.5 VXEL052033
     K22L01L 1C2022 06 06.95924 16 49 00.05 -03 24 46.6          20.3 VXEL052033

Observer details:
033 Karl Schwarzschild Observatory, Tautenburg.  Observers S. Melnikov, C.
    Hoegner, U. Laux, F. Ludwig, B. Stecklum.  Measurer B. Stecklum.  1.34-m
    f/3 Schmidt + CCD.
568 Mauna Kea.  Observer Y. Ramanjooloo.  Measurers R. Weryk, Y. Ramanjooloo,
    R. Wainscoat.  2.24-m University of Hawaii reflector + CCD.
807 Cerro Tololo Observatory, La Serena.  Observers T. Linder, R. Holmes, L.
    Horn.  0.61-m f/6.5 Dall-Kirkham Astrograph + CCD.
F52 Pan-STARRS 2, Haleakala.  Observers J. Bulger, T. Lowe, A. Schultz, I.
    Smith, K. Chambers, T. Dukes.  Measurers K. Chambers, S. Chastel, T. de
    Boer, J. Fairlamb, H. Gao, M. Huber, C.-C. Lin, E. Magnier, Y.
    Ramanjooloo, R. Wainscoat, R. Weryk.  1.8-m Ritchey-Chretien + CCD.
I52 Steward Observatory, Mt. Lemmon Station.  Observer G. J. Leonard.
    Measurers E. J. Christensen, D. Fay, J. B. Fazekas, D. C. Fuls, A. R.
    Gibbs, A. D. Grauer, H. Groeller, J. K. Hogan, R. A. Kowalski, S. M.
    Larson, G. J. Leonard, D. Rankin, R. L. Seaman, A. Serrano, F. C. Shelly,
    K. W. Wierzchos.  1.0-m prime focus + CCD.
L01 Visnjan Observatory, Tican.  Observers K. Korlevic, I. Lyon.  Measurer K.
    Korlevic.  1.0-m f/2.9 reflector + CCD.

Orbital elements:
2022 LL1                                                 Earth MOID = 0.0115 AU
Epoch 2022 Aug. 9.0 TT = JDT 2459800.5                  Veres                   
M   4.01486              (2000.0)            P               Q                  
n   0.35648886     Peri.  276.72784     +0.99259884     -0.02397575             
a   1.9698753      Node    84.69395     +0.07060078     +0.91155661             
e   0.7528591      Incl.    6.86679     -0.09880823     +0.41047498             
P   2.76           H   25.68          G   0.15           U   8                  
Residuals in seconds of arc
220605 F52  0.1+  0.0     220606 I52  0.6-  0.0     220606 568  0.1+  0.0
220605 F52  0.0   0.2+    220606 807  0.7-  0.1+    220606 L01  0.1-  0.3+
220605 F52  0.4+  0.1-    220606 807  0.6-  0.2-    220606 L01  0.4+  0.1-
220605 F52  0.3-  0.2+    220606 807  0.2-  0.4-    220606 L01  0.1+  0.1+
220605 F52  0.3+  0.2+    220606 F52  0.1-  0.4+    220606 033  0.2+  0.4+
220605 F52  0.4+  0.0     220606 F52  0.1-  0.1-    220606 033  0.2+  0.3+
220606 I52  0.3+  0.5-    220606 568  0.1-  0.1+    220606 033  0.2-  0.1+

Ephemeris:
2022 LL1                 a,e,i = 1.97, 0.75, 7                   q = 0.4868
Date    TT    R. A. (2000) Decl.     Delta      r    Elong.  Phase     V
2022 05 08    17 25 48.3 -14 25 40   0.5068  1.4519   144.5    23.8    26.1
...
2022 05 23    17 26 29.1 -12 46 46   0.2735  1.2693   157.4    17.8    24.3
...
2022 05 31    17 19 26.0 -10 39 22   0.1581  1.1664   163.8    14.1    22.8
...
2022 06 06    16 57 41.5 -05 26 39   0.07528 1.0868   162.8    16.0    21.1
2022 06 07    16 48 33.8 -03 16 38   0.06194 1.0734   160.4    18.5    20.7
2022 06 08    16 34 35.4 +00 03 03   0.04892 1.0598   156.1    22.8    20.3
...
2022 06 14    07 10 42.2 +30 52 54   0.04163 0.9777    24.1   155.0    28.2
...
2022 06 22    06 01 53.3 +19 34 05   0.1505  0.8662     3.9   175.5
...
2022 07 07    05 51 58.6 +17 35 58   0.3841  0.6605    17.5   152.5    31.6

M. P. C. Staff               (C) Copyright 2022 MPC           M.P.E.C. 2022-L52




More information about the Iaude mailing list